Weather in Armavir

Armenia     40°09′19″N   44°02′19″E
temp.,
°C
wind,
m/s
gust,
m/s
humid.,
%
clouds,
%
prec.,
mm/h
press.,
hPa
HPBL,
m
15 may, sat
sat1501:00+16wnw33450 0.0 101426
04:00+14n11530 0.0 101513
07:00+17nnw01522 0.0 101517
10:00+22se11360 0.0 1015685
13:00+26se22280 0.0 10121493
16:00+27ese222614 0.2 10102315
19:00+21nne464261 0.4 1011150
22:00+18nw11430 0.4 101212
16 may, sun
sun1601:00+16w125111 0.0 101219
04:00+15nw115711 0.0 101213
07:00+17n11585 0.0 101332
10:00+22se34425 0.0 1012874
13:00+26ese55295 0.0 10101539
16:00+26ssw3327100 0.1 10082131
19:00+18n6957100 2.9 1009152
22:00+16nne3366100 3.6 101386
17 may, mon
mon1701:00+14nne117374 0.0 101211
04:00+13se1173100 0.0 101211
07:00+16ene11625 0.0 101228
10:00+21ese24469 0.0 1012722
13:00+26ese333298 0.0 10101232
16:00+28sse3326100 0.0 10071794
19:00+23ne354042 0.0 1007275
22:00+20e51144100 0.1 1010413
18 may, tue
tue1801:00+16nw01550 0.0 100917
04:00+15e125134 0.1 100820
07:00+17ne015433 0.2 100943
10:00+21sse11413 0.2 1008824
13:00+26w342417 0.2 10062891
16:00+20e564721 0.3 1008491
19:00+18wsw1258100 0.6 1011114
22:00+14nne11700 0.6 101311
19 may, wed
wed1901:00+13nw23640 0.0 101459
04:00+12wnw23660 0.0 101544
07:00+14wnw22600 0.0 101672
10:00+20wsw11400 0.0 1016821
13:00+24s22282 0.0 10131773
16:00+26sse22270 0.0 10111885
19:00+25sse23320 0.0 1011103
22:00+19ne22370 0.0 101211